| time (UTC) | temp C | wind direction | speed KPH | gust KPH | rain 1hr cm | rain 24hr cm | rain mn cm | humidity % | barometer mb |
| 20260905171525 | 17 | 326 | 3.2 | 9.7 | 0.00 | 0.15 | 0.15 | 60 | 1022.3 |
| 20260905170020 | 17 | 316 | 1.6 | 8.0 | 0.00 | 0.15 | 0.15 | 63 | 1022.4 |
| 20260905164518 | 16 | 23 | 0.0 | 6.4 | 0.00 | 0.15 | 0.15 | 71 | 1022.5 |
| 20260905163114 | 15 | 326 | 3.2 | 6.4 | 0.00 | 0.15 | 0.15 | 72 | 1022.4 |
| 20260905161508 | 14 | 318 | 0.0 | 1.6 | 0.00 | 0.15 | 0.15 | 81 | 1022.4 |
| 20260905160020 | 14 | 282 | 0.0 | 3.2 | 0.00 | 0.15 | 0.15 | 81 | 1022.2 |
| 20260905154505 | 13 | 335 | 0.0 | 1.6 | 0.00 | 0.15 | 0.15 | 82 | 1022.5 |
| 20260905153001 | 13 | 302 | 0.0 | 1.6 | 0.03 | 0.15 | 0.15 | 84 | 1022.0 |
| 20260905151559 | 13 | 302 | 0.0 | 1.6 | 0.03 | 0.15 | 0.15 | 85 | 1022.1 |
| 20260905150100 | 12 | 333 | 0.0 | 6.4 | 0.03 | 0.15 | 0.15 | 87 | 1022.0 |
| 20260905144557 | 12 | 347 | 1.6 | 8.0 | 0.05 | 0.15 | 0.15 | 88 | 1022.0 |
| 20260905143057 | 11 | 335 | 1.6 | 8.0 | 0.10 | 0.13 | 0.13 | 87 | 1021.7 |
| 20260905141553 | 11 | 335 | 4.8 | 11.3 | 0.13 | 0.13 | 0.13 | 88 | 1021.1 |
| 20260905140052 | 11 | 323 | 0.0 | 4.8 | 0.13 | 0.13 | 0.13 | 87 | 1022.1 |
| 20260905134557 | 10 | 337 | 0.0 | 3.2 | 0.10 | 0.10 | 0.10 | 85 | 1022.4 |
| 20260905133049 | 10 | 276 | 1.6 | 8.0 | 0.00 | 0.00 | 0.00 | 83 | 1022.3 |
| 20260905131550 | 11 | 256 | 0.0 | 4.8 | 0.00 | 0.00 | 0.00 | 81 | 1021.9 |
| 20260905130042 | 11 | 262 | 0.0 | 0.0 | 0.00 | 0.00 | 0.00 | 79 | 1021.1 |
| 20260905124542 | 10 | 240 | 0.0 | 1.6 | 0.00 | 0.00 | 0.00 | 78 | 1021.3 |
| 20260905123039 | 11 | 232 | 0.0 | 1.6 | 0.00 | 0.00 | 0.00 | 76 | 1021.0 |
| 20260905121535 | 11 | 277 | 0.0 | 6.4 | 0.00 | 0.00 | 0.00 | 73 | 1020.8 |
| 20260905120034 | 11 | 231 | 1.6 | 12.9 | 0.00 | 0.00 | 0.00 | 71 | 1021.1 |
| 20260905114540 | 11 | 268 | 0.0 | 1.6 | 0.00 | 0.00 | 0.00 | 72 | 1021.0 |
| 20260905113036 | 11 | 31 | 0.0 | 1.6 | 0.00 | 0.00 | 0.00 | 72 | 1020.5 |
| 20260905111644 | 11 | 276 | 0.0 | 3.2 | 0.00 | 0.00 | 0.00 | 72 | 1020.3 |
| 20260905110056 | 11 | 252 | 1.6 | 6.4 | 0.00 | 0.00 | 0.00 | 72 | 1020.2 |
| 20260905104553 | 11 | 250 | 0.0 | 4.8 | 0.00 | 0.00 | 0.00 | 73 | 1019.9 |
| 20260905103055 | 10 | 342 | 0.0 | 3.2 | 0.00 | 0.00 | 0.00 | 74 | 1019.8 |
| 20260905101552 | 10 | 359 | 0.0 | 3.2 | 0.00 | 0.00 | 0.00 | 75 | 1020.1 |
| 20260905094547 | 10 | 1 | 0.0 | 1.6 | 0.00 | 0.00 | 0.00 | 72 | 1019.5 |
| 20260905093046 | 10 | 1 | 0.0 | 1.6 | 0.00 | 0.00 | 0.00 | 72 | 1019.8 |
| 20260905091543 | 10 | 1 | 0.0 | 1.6 | 0.00 | 0.00 | 0.00 | 71 | 1019.7 |
| 20260905090041 | 10 | 247 | 0.0 | 1.6 | 0.00 | 0.00 | 0.00 | 70 | 1019.0 |
| 20260905084506 | 11 | 247 | 0.0 | 1.6 | 0.00 | 0.00 | 0.00 | 67 | 1018.9 |
| 20260905083005 | 11 | 240 | 0.0 | 3.2 | 0.00 | 0.00 | 0.00 | 66 | 1018.5 |
| 20260905081502 | 12 | 45 | 6.4 | 8.0 | 0.00 | 0.00 | 0.00 | 65 | 1018.2 |
| 20260905074559 | 12 | 42 | 6.4 | 12.9 | 0.00 | 0.00 | 0.00 | 64 | 1019.5 |
| 20260905073058 | 12 | 300 | 0.0 | 6.4 | 0.00 | 0.00 | 0.00 | 66 | 1019.4 |
| 20260905071556 | 11 | 240 | 0.0 | 3.2 | 0.00 | 0.00 | 0.00 | 67 | 1019.4 |
| 20260905070050 | 11 | 317 | 0.0 | 1.6 | 0.00 | 0.00 | 0.00 | 64 | 1018.9 |
| 20260905064549 | 12 | 354 | 1.6 | 4.8 | 0.00 | 0.00 | 0.00 | 62 | 1018.9 |
| 20260905063058 | 12 | 304 | 4.8 | 11.3 | 0.00 | 0.00 | 0.00 | 62 | 1018.9 |
| 20260905061557 | 13 | 302 | 0.0 | 3.2 | 0.00 | 0.00 | 0.00 | 62 | 1019.2 |
| 20260905060039 | 13 | 291 | 0.0 | 1.6 | 0.00 | 0.00 | 0.00 | 57 | 1018.9 |
| 20260905054539 | 15 | 304 | 1.6 | 9.7 | 0.00 | 0.00 | 0.00 | 55 | 1018.8 |
| 20260905053040 | 14 | 335 | 3.2 | 9.7 | 0.00 | 0.00 | 0.00 | 56 | 1018.5 |
| 20260905051536 | 14 | 349 | 1.6 | 6.4 | 0.00 | 0.00 | 0.00 | 57 | 1018.4 |
| 20260905050035 | 15 | 305 | 0.0 | 6.4 | 0.00 | 0.00 | 0.00 | 55 | 1018.5 |
| 20260905044538 | 15 | 312 | 1.6 | 6.4 | 0.00 | 0.00 | 0.00 | 54 | 1018.5 |
| 20260905043035 | 16 | 348 | 4.8 | 9.7 | 0.00 | 0.00 | 0.00 | 50 | 1018.2 |
| 20260905041532 | 16 | 316 | 0.0 | 0.0 | 0.00 | 0.00 | 0.00 | 51 | 1018.9 |
| 20260905040026 | 16 | 313 | 0.0 | 0.0 | 0.00 | 0.00 | 0.00 | 50 | 1017.9 |
| 20260905034524 | 16 | 344 | 1.6 | 11.3 | 0.00 | 0.00 | 0.00 | 48 | 1017.3 |
| 20260905033028 | 16 | 337 | 6.4 | 14.5 | 0.00 | 0.00 | 0.00 | 49 | 1017.1 |
| 20260905031528 | 17 | 285 | 1.6 | 8.0 | 0.00 | 0.00 | 0.00 | 48 | 1017.4 |
| 20260905030029 | 17 | 322 | 4.8 | 16.1 | 0.00 | 0.00 | 0.00 | 46 | 1017.2 |
| 20260905024529 | 17 | 340 | 4.8 | 11.3 | 0.00 | 0.00 | 0.00 | 47 | 1017.0 |
| 20260905023015 | 17 | 316 | 3.2 | 9.7 | 0.00 | 0.00 | 0.00 | 46 | 1016.5 |
| 20260905021513 | 17 | 332 | 3.2 | 8.0 | 0.00 | 0.00 | 0.00 | 43 | 1016.6 |
| 20260905020012 | 18 | 307 | 0.0 | 11.3 | 0.00 | 0.00 | 0.00 | 42 | 1016.1 |
| 20260905014507 | 18 | 339 | 12.9 | 22.5 | 0.00 | 0.00 | 0.00 | 41 | 1015.2 |
| 20260905013008 | 18 | 330 | 11.3 | 27.4 | 0.00 | 0.00 | 0.00 | 41 | 1015.1 |
| 20260905011535 | 18 | 351 | 16.1 | 27.4 | 0.00 | 0.00 | 0.00 | 40 | 1015.2 |
| 20260905010035 | 18 | 6 | 14.5 | 22.5 | 0.00 | 0.00 | 0.00 | 40 | 1015.1 |
| 20260905004532 | 20 | 328 | 17.7 | 30.6 | 0.00 | 0.00 | 0.00 | 39 | 1015.0 |
| 20260905003032 | 20 | 335 | 11.3 | 29.0 | 0.00 | 0.00 | 0.00 | 38 | 1015.1 |
| 20260905001532 | 20 | 328 | 11.3 | 22.5 | 0.00 | 0.00 | 0.00 | 37 | 1015.3 |
| 20260905000031 | 21 | 336 | 12.9 | 24.1 | 0.00 | 0.00 | 0.00 | 36 | 1015.3 |
| 20260904234532 | 22 | 306 | 8.0 | 27.4 | 0.00 | 0.00 | 0.00 | 35 | 1015.5 |
| 20260904234530 | 22 | 305 | 8.0 | 27.4 | 0.00 | 0.00 | 0.00 | 35 | 1015.5 |
| 20260904233027 | 22 | 345 | 11.3 | 24.1 | 0.00 | 0.00 | 0.00 | 34 | 1015.5 |
| 20260904231529 | 21 | 327 | 9.7 | 24.1 | 0.00 | 0.00 | 0.00 | 35 | 1015.5 |
| 20260904230024 | 22 | 340 | 12.9 | 24.1 | 0.00 | 0.00 | 0.00 | 34 | 1015.3 |
| 20260904224524 | 21 | 335 | 12.9 | 24.1 | 0.00 | 0.00 | 0.00 | 35 | 1015.2 |
| 20260904223024 | 21 | 352 | 11.3 | 22.5 | 0.00 | 0.00 | 0.00 | 35 | 1015.1 |
| 20260904221517 | 22 | 314 | 8.0 | 19.3 | 0.00 | 0.00 | 0.00 | 34 | 1014.8 |
| 20260904220015 | 22 | 276 | 4.8 | 16.1 | 0.00 | 0.00 | 0.00 | 35 | 1014.6 |
| 20260904214514 | 22 | 298 | 6.4 | 20.9 | 0.00 | 0.00 | 0.00 | 34 | 1014.5 |
| 20260904213022 | 22 | 299 | 8.0 | 20.9 | 0.00 | 0.00 | 0.00 | 35 | 1014.3 |
| 20260904211508 | 22 | 271 | 9.7 | 24.1 | 0.00 | 0.00 | 0.00 | 35 | 1013.9 |
| 20260904210015 | 22 | 345 | 6.4 | 20.9 | 0.00 | 0.00 | 0.00 | 36 | 1013.7 |
| 20260904204504 | 22 | 297 | 6.4 | 17.7 | 0.00 | 0.00 | 0.00 | 36 | 1013.7 |
| 20260904203111 | 22 | 314 | 8.0 | 17.7 | 0.00 | 0.00 | 0.00 | 37 | 1013.5 |
| 20260904201558 | 22 | 334 | 4.8 | 14.5 | 0.00 | 0.00 | 0.00 | 38 | 1013.4 |
| 20260904200110 | 22 | 295 | 6.4 | 14.5 | 0.00 | 0.00 | 0.00 | 37 | 1013.2 |
| 20260904194557 | 21 | 322 | 6.4 | 16.1 | 0.00 | 0.00 | 0.00 | 38 | 1013.1 |
| 20260904193052 | 21 | 321 | 4.8 | 16.1 | 0.00 | 0.00 | 0.00 | 38 | 1012.7 |
| 20260904191546 | 21 | 336 | 6.4 | 17.7 | 0.00 | 0.00 | 0.00 | 37 | 1012.4 |
| 20260904190041 | 20 | 309 | 4.8 | 17.7 | 0.00 | 0.00 | 0.00 | 40 | 1012.3 |
| 20260904184539 | 20 | 243 | 3.2 | 6.4 | 0.00 | 0.00 | 0.00 | 40 | 1012.2 |
| 20260904183035 | 20 | 304 | 1.6 | 9.7 | 0.00 | 0.00 | 0.00 | 42 | 1012.0 |
| 20260904181532 | 20 | 233 | 3.2 | 8.0 | 0.00 | 0.00 | 0.00 | 42 | 1012.0 |
| 20260904180029 | 19 | 274 | 1.6 | 6.4 | 0.00 | 0.00 | 0.00 | 42 | 1012.0 |
| 20260904174528 | 19 | 221 | 1.6 | 8.0 | 0.00 | 0.00 | 0.00 | 42 | 1011.9 |
| 20260904173104 | 18 | 248 | 0.0 | 4.8 | 0.00 | 0.00 | 0.00 | 41 | 1011.6 |
| 20260904171602 | 18 | 288 | 0.0 | 3.2 | 0.00 | 0.00 | 0.00 | 44 | 1011.5 |